Beaufort, SC

8:06 PM EDT on August 30, 2016 (GMT -0400)
Beaufort

Weather History for KARW - February, 2013

Change the Weather History Date:

Tuesday, February 12, 2013

  Actual Average (KNBC) Record (KNBC)
Temperature  
Mean Temperature 56 °F -  
Max Temperature 59 °F 61 °F 68 °F (2015)
Min Temperature 53 °F 39 °F 32 °F (2014)
Degree Days  
Heating Degree Days 9    
Growing Degree Days 6 (Base 50)    
Moisture  
Dew Point 55 °F    
Average Humidity 94    
Maximum Humidity 100    
Minimum Humidity 72    
Precipitation  
Precipitation 0.00 in - - ()
Sea Level Pressure  
Sea Level Pressure 30.02 in    
Wind  
Wind Speed 3 mph (NNE)    
Max Wind Speed 14 mph    
Max Gust Speed -    
Visibility 6 miles    
Events Rain , Thunderstorm    
Averages and records for this station are not official NWS values.
T = Trace of Precipitation, MM = Missing Value Source: NWS Daily Summary

Daily Weather History Graph

Daily Weather History Graph

Search for Another Location

Airport or City:

Trip Planner

Search our weather history database for the weather conditions in past years. The results will help you decide how hot, cold, wet, or windy it might be!

Date:

Astronomy

Feb. 12, 2013 Rise Set
Actual Time 7:07 AM EST 6:06 PM EST
Civil Twilight 6:42 AM EST 6:31 PM EST
Nautical Twilight 6:13 AM EST 7:00 PM EST
Astronomical Twilight 5:45 AM EST 7:28 PM EST
Moon 8:16 AM EST (2/12) 8:51 PM EST (2/12)
Length of Visible Light 11h 48m
Length of Day
10h 58m
Waxing Crescent, 7% of the Moon is Illuminated
Feb 12
Waxing Crescent
Feb 17
First Quarter
Feb 25
Full
Mar 4
Last Quarter
Mar 11
New

Hourly Weather History & Observations

Time (EST) Temp. Dew Point Humidity Pressure Visibility Wind Dir Wind Speed Gust Speed Precip Events Conditions
12:15 AM 59.0 °F 59.0 °F 100% 30.09 in 10.0 mi Calm Calm - N/A   Light Drizzle
12:35 AM 59.0 °F 59.0 °F 100% 30.11 in 5.0 mi Calm Calm - N/A Rain Light Rain
12:55 AM 59.0 °F 59.0 °F 100% 30.09 in 7.0 mi Calm Calm - N/A Rain Light Rain
1:15 AM 59.0 °F 59.0 °F 100% 30.07 in 5.0 mi Calm Calm - N/A   Overcast
1:35 AM 59.0 °F 59.0 °F 100% 30.06 in 4.0 mi Calm Calm - N/A   Overcast
1:55 AM 59.0 °F 59.0 °F 100% 30.07 in 2.5 mi South 3.5 mph - N/A   Overcast
2:15 AM 59.0 °F 59.0 °F 100% 30.06 in 4.0 mi South 3.5 mph - N/A Rain Rain
2:35 AM 59.0 °F 59.0 °F 100% 30.05 in 5.0 mi Calm Calm - N/A Rain Rain
2:55 AM 59.0 °F 59.0 °F 100% 30.04 in 7.0 mi Calm Calm - N/A Rain Light Rain
3:15 AM 59.0 °F 59.0 °F 100% 30.05 in 7.0 mi WNW 3.5 mph - N/A Rain Rain
3:35 AM 59.0 °F 59.0 °F 100% 30.05 in 7.0 mi West 3.5 mph - N/A Rain Rain
3:55 AM 59.0 °F 59.0 °F 100% 30.03 in 7.0 mi Calm Calm - N/A   Overcast
4:15 AM 59.0 °F 59.0 °F 100% 30.04 in 7.0 mi SSW 3.5 mph - N/A Rain Light Rain
4:35 AM 59.0 °F 59.0 °F 100% 30.07 in 7.0 mi West 10.4 mph - N/A Rain Rain
4:55 AM 59.0 °F 59.0 °F 100% 30.07 in 7.0 mi West 5.8 mph - N/A Rain Light Rain
5:15 AM 59.0 °F 59.0 °F 100% 30.04 in 10.0 mi Calm Calm - N/A Rain Light Rain
5:35 AM 59.0 °F 59.0 °F 100% 30.01 in 5.0 mi SSE 5.8 mph - N/A   Overcast
5:55 AM 59.0 °F 59.0 °F 100% 30.02 in 7.0 mi Calm Calm - N/A   Overcast
6:15 AM 59.0 °F 59.0 °F 100% 30.04 in 7.0 mi NW 6.9 mph - N/A   Light Drizzle
6:35 AM 59.0 °F 59.0 °F 100% 30.06 in 10.0 mi WNW 4.6 mph - N/A Rain Rain
6:55 AM 59.0 °F 59.0 °F 100% 30.07 in 7.0 mi WNW 4.6 mph - N/A Rain Rain
7:15 AM 59.0 °F 59.0 °F 100% 30.06 in 5.0 mi WNW 3.5 mph - N/A Rain Light Rain
7:35 AM 59.0 °F 59.0 °F 100% 30.07 in 5.0 mi Calm Calm - N/A Rain Heavy Rain
7:55 AM 59.0 °F 59.0 °F 100% 30.05 in 5.0 mi Calm Calm - N/A Rain Light Rain
8:15 AM 59.0 °F 59.0 °F 100% 30.06 in 7.0 mi Calm Calm - N/A   Overcast
8:35 AM 59.0 °F 57.2 °F 94% 30.08 in 7.0 mi NW 5.8 mph - N/A   Overcast
8:55 AM 59.0 °F 57.2 °F 94% 30.09 in 5.0 mi NW 8.1 mph - N/A Rain Rain
9:15 AM 59.0 °F 55.4 °F 88% 30.13 in 3.0 mi WNW 13.8 mph - N/A Rain Heavy Rain
9:35 AM 59.0 °F 55.4 °F 88% 30.13 in 2.5 mi NW 11.5 mph - N/A Rain Heavy Rain
9:55 AM 57.2 °F 55.4 °F 94% 30.12 in 7.0 mi Calm Calm - N/A Rain Light Rain
10:15 AM 59.0 °F 55.4 °F 88% 30.10 in 7.0 mi North 6.9 mph - N/A Rain Light Rain
10:35 AM 55.4 °F 53.6 °F 94% 30.11 in 10.0 mi NW 10.4 mph - N/A Rain Light Rain
10:55 AM 53.6 °F 51.8 °F 94% 30.11 in 10.0 mi NNW 8.1 mph - N/A Rain Rain
11:15 AM 53.6 °F 51.8 °F 94% 30.10 in 10.0 mi North 10.4 mph - N/A Rain Light Rain
11:35 AM 53.6 °F 51.8 °F 94% 30.09 in 7.0 mi NNE 4.6 mph - N/A   Overcast
11:55 AM 53.6 °F 51.8 °F 94% 30.07 in 7.0 mi North 8.1 mph - N/A   Overcast
12:15 PM 53.6 °F 51.8 °F 94% 30.07 in 7.0 mi North 4.6 mph - N/A   Overcast
12:35 PM 53.6 °F 51.8 °F 94% 30.07 in 5.0 mi North 3.5 mph - N/A   Overcast
12:55 PM 55.4 °F 51.8 °F 88% 30.06 in 7.0 mi NNE 3.5 mph - N/A   Overcast
1:15 PM 55.4 °F 53.6 °F 94% 30.04 in 5.0 mi NE 3.5 mph - N/A   Overcast
1:35 PM 55.4 °F 51.8 °F 88% 30.03 in 7.0 mi NE 6.9 mph - N/A   Overcast
1:55 PM 57.2 °F 51.8 °F 82% 30.02 in 7.0 mi NE 5.8 mph - N/A   Overcast
2:15 PM 59.0 °F 50.0 °F 72% 30.01 in 7.0 mi NE 6.9 mph - N/A   Overcast
2:35 PM 59.0 °F 50.0 °F 72% 30.02 in 7.0 mi NE 4.6 mph - N/A   Overcast
2:55 PM 59.0 °F 50.0 °F 72% 30.01 in 7.0 mi ENE 3.5 mph - N/A   Overcast
3:15 PM 59.0 °F 50.0 °F 72% 29.99 in 10.0 mi NE 5.8 mph - N/A   Overcast
3:35 PM 59.0 °F 51.8 °F 77% 29.97 in 10.0 mi ENE 4.6 mph - N/A   Overcast
3:55 PM 59.0 °F 50.0 °F 72% 30.00 in 7.0 mi Calm Calm - N/A Thunderstorm Overcast
4:15 PM 59.0 °F 51.8 °F 77% 29.99 in 7.0 mi Calm Calm - N/A Rain Rain
4:35 PM 55.4 °F 53.6 °F 94% 30.00 in 3.0 mi South 4.6 mph - N/A Rain Rain
4:55 PM 55.4 °F 53.6 °F 94% 29.97 in 10.0 mi ESE 3.5 mph - N/A Rain Light Rain
5:15 PM 55.4 °F 53.6 °F 94% 29.97 in 7.0 mi Calm Calm - N/A   Overcast
5:35 PM 55.4 °F 53.6 °F 94% 29.98 in 7.0 mi Calm Calm - N/A Rain Rain
5:55 PM 55.4 °F 53.6 °F 94% 29.98 in 2.5 mi East 3.5 mph - N/A Rain , Thunderstorm Thunderstorms and Rain
6:15 PM 55.4 °F 53.6 °F 94% 30.00 in 4.0 mi Calm Calm - N/A Rain Rain
6:35 PM 55.4 °F 53.6 °F 94% 29.96 in 4.0 mi NE 5.8 mph - N/A Rain Rain
6:55 PM 53.6 °F 53.6 °F 100% 29.93 in 7.0 mi East 10.4 mph - N/A Rain Rain
7:15 PM 53.6 °F 51.8 °F 94% 29.96 in 4.0 mi NE 5.8 mph - N/A Rain Rain
7:35 PM 53.6 °F 51.8 °F 94% 29.94 in 7.0 mi NE 8.1 mph - N/A Rain Rain
7:55 PM 53.6 °F 51.8 °F 94% 29.93 in 5.0 mi NE 6.9 mph - N/A Rain Light Rain
8:15 PM 53.6 °F 51.8 °F 94% 29.93 in 7.0 mi ENE 6.9 mph - N/A   Overcast
8:35 PM 53.6 °F 51.8 °F 94% 29.91 in 7.0 mi ENE 6.9 mph - N/A   Overcast
8:55 PM 53.6 °F 51.8 °F 94% 29.91 in 7.0 mi East 6.9 mph - N/A Rain Light Rain
9:15 PM 53.6 °F 53.6 °F 100% 29.94 in 5.0 mi NW 8.1 mph - N/A Rain Heavy Rain
9:35 PM 53.6 °F 51.8 °F 94% 29.94 in 5.0 mi NNW 5.8 mph - N/A Rain Heavy Rain
9:55 PM 53.6 °F 51.8 °F 94% 29.91 in 5.0 mi NE 6.9 mph - N/A Rain Rain
10:15 PM 53.6 °F 51.8 °F 94% 29.90 in 7.0 mi NE 10.4 mph - N/A Rain Rain
10:35 PM 53.6 °F 51.8 °F 94% 29.90 in 10.0 mi NE 11.5 mph - N/A Rain Light Rain
10:55 PM 53.6 °F 51.8 °F 94% 29.89 in 5.0 mi NE 8.1 mph - N/A Rain Light Rain
11:15 PM 53.6 °F 51.8 °F 94% 29.88 in 10.0 mi East 8.1 mph - N/A Rain Light Rain
11:35 PM 53.6 °F 51.8 °F 94% 29.88 in 7.0 mi ENE 5.8 mph - N/A Rain Heavy Rain
11:55 PM 53.6 °F 51.8 °F 94% 29.87 in 7.0 mi NE 4.6 mph - N/A Rain Rain